Change the Weather History Date:

Thursday, August 22, 2013

  Actual Average Record
Temperature  
Mean Temperature 78 °F -  
Max Temperature 84 °F 86 °F 96 °F (1983)
Min Temperature 73 °F 70 °F 64 °F (1953)
Cooling Degree Days 14    
Growing Degree Days 28 (Base 50)    
Moisture  
Dew Point 74 °F    
Average Humidity 84    
Maximum Humidity 94    
Minimum Humidity 77    
Precipitation  
Precipitation 0.00 in - - ()
Sea Level Pressure  
Sea Level Pressure 30.09 in    
Wind  
Wind Speed 6 mph (WSW)    
Max Wind Speed 14 mph    
Max Gust Speed -    
Visibility 10 miles    
Events      
Averages and records for this station are not official NWS values.
T = Trace of Precipitation, MM = Missing Value Source: NWS Daily Summary

Daily Weather History Graph

Daily Weather History Graph

Search for Another Location

Airport or City:

Trip Planner

Search our weather history database for the weather conditions in past years. The results will help you decide how hot, cold, wet, or windy it might be!

Date:

Astronomy

Aug. 22, 2013 Rise Set
Actual Time 6:32 AM EDT 7:45 PM EDT
Civil Twilight 6:06 AM EDT 8:12 PM EDT
Nautical Twilight 5:34 AM EDT 8:43 PM EDT
Astronomical Twilight 5:02 AM EDT 9:15 PM EDT
Moon 8:36 PM EDT (8/22) 8:11 AM EDT (8/22)
Length of Visible Light 14h 05m
Length of Day
13h 13m
Waning Gibbous, 97% of the Moon is Illuminated
Aug 22
Waning Gibbous
Aug 28
Last Quarter
Sep 5
New
Sep 12
First Quarter
Sep 19
Full

Hourly Weather History & Observations

Time (EDT) Temp. Heat Index Dew Point Humidity Pressure Visibility Wind Dir Wind Speed Gust Speed Precip Events Conditions
12:58 AM 78.1 °F - 73.9 °F 87% 30.13 in 10.0 mi WSW 4.6 mph - N/A   Partly Cloudy
1:58 AM 78.1 °F - 73.9 °F 87% 30.13 in 10.0 mi WSW 3.5 mph - N/A   Clear
2:58 AM 75.9 °F - 73.0 °F 91% 30.14 in 10.0 mi NNW 4.6 mph - N/A   Clear
3:58 AM 75.0 °F - 73.0 °F 94% 30.13 in 10.0 mi NNW 3.5 mph - N/A   Clear
4:58 AM 75.0 °F - 72.0 °F 90% 30.12 in 10.0 mi Calm Calm - N/A   Clear
5:58 AM 73.9 °F - 72.0 °F 93% 30.12 in 10.0 mi WNW 4.6 mph - N/A   Clear
6:58 AM 75.0 °F - 72.0 °F 90% 30.13 in 10.0 mi NW 3.5 mph - N/A   Clear
7:58 AM 77.0 °F - 73.0 °F 88% 30.14 in 10.0 mi West 3.5 mph - N/A   Clear
8:58 AM 80.1 °F 85.1 °F 75.0 °F 85% 30.14 in 10.0 mi West 6.9 mph - N/A   Clear
9:58 AM 82.0 °F 88.6 °F 75.0 °F 79% 30.14 in 10.0 mi West 9.2 mph - N/A   Clear
10:58 AM 82.9 °F 90.8 °F 75.9 °F 79% 30.14 in 10.0 mi West 6.9 mph - N/A   Partly Cloudy
11:58 AM 84.0 °F 93.7 °F 77.0 °F 79% 30.13 in 10.0 mi SW 6.9 mph - N/A   Clear
12:58 PM 84.0 °F 93.7 °F 77.0 °F 79% 30.11 in 10.0 mi SW 8.1 mph - N/A   Partly Cloudy
1:58 PM 82.9 °F 91.8 °F 77.0 °F 82% 30.09 in 10.0 mi SW 11.5 mph - N/A   Clear
2:58 PM 82.0 °F 90.2 °F 77.0 °F 85% 30.07 in 10.0 mi SW 9.2 mph - N/A   Clear
3:58 PM 84.0 °F 93.7 °F 77.0 °F 79% 30.04 in 10.0 mi SW 10.4 mph - N/A   Clear
4:58 PM 82.9 °F 91.8 °F 77.0 °F 82% 30.04 in 10.0 mi SW 11.5 mph - N/A   Clear
5:58 PM 82.0 °F 89.4 °F 75.9 °F 82% 30.03 in 10.0 mi SW 12.7 mph - N/A   Clear
6:58 PM 81.0 °F 87.3 °F 75.9 °F 85% 30.03 in 10.0 mi SW 13.8 mph - N/A   Clear
7:58 PM 81.0 °F 87.3 °F 75.9 °F 85% 30.03 in 10.0 mi WSW 10.4 mph - N/A   Clear
8:58 PM 80.1 °F 84.5 °F 73.9 °F 81% 30.04 in 10.0 mi WSW 13.8 mph - N/A   Clear
9:58 PM 79.0 °F - 71.1 °F 77% 30.05 in 10.0 mi West 8.1 mph - N/A   Clear
10:58 PM 78.1 °F - 71.1 °F 79% 30.04 in 10.0 mi West 5.8 mph - N/A   Clear
11:58 PM 75.9 °F - 72.0 °F 87% 30.03 in 10.0 mi West 4.6 mph - N/A   Clear